Tracking 19245 objects as of 14-Aug-2018
HD Live streaming from Space Station
objects crossing your sky now

FORMOSAT 3B

Track FORMOSAT 3B now!
10-day predictions
FORMOSAT 3B is classified as:


NORAD ID: 29048
Int'l Code: 2006-011B
Perigee: 773.4 km
Apogee: 833.8 km
Inclination: 72.0 °
Period: 100.8 minutes
Semi major axis: 7174 km
RCS: 0.6095 m2 (medium)
Launch date: April 15, 2006
Source: Taiwan (Republic of China) (ROC)
Launch site: AIR FORCE WESTERN TEST RANGE (AFWTR)
aabbcc
Your satellite tracking list
Your tracking list is empty




NASA's NSSDC Master Catalog

Two Line Element Set (TLE):
1 29048U 06011B   18226.53309017  .00000026  00000-0  26684-4 0  9996
2 29048  71.9682 315.0098 0042068  98.8679 261.7224 14.28583886647702
Source of the keplerian elements: AFSPC